THOR ABLESTAR R/B, 1428

Orbit data source: Space-Track

THOR ABLESTAR R/B, 1428 is space debris in LEO originally from a launch on Thu, 24 Jun 1965 UTC launched from the Air Force Western Test Range (AFWTR). Debris objects in space refer to the collection of defunct objects orbiting the Earth. Examples of debris include non-operational satellites, rocket bodies, and fragments generated from explosions, collisions, or faulty payload assembly.

Loading next visibility...
Identifier
1428, 1965-048B
Orbit
LEO
Country
Flag of USUS
Related business
Manufacturer
Aerojet
Mission
Spacecraft
Bus & Motor
ABLESTAR, Unknown motor
Mass
~600 kg wet, 600 kg dry
Launch date (UTC)
1965-06-24 (61 years ago)
Launch vehicle
Unknown
Launch site
Air Force Western Test Range (AFWTR)
Object type
Payload
Rocket body
Debris
Shape & HBR
Unknown
Radar Cross Section
Large (>1 m²)

Expand to show TLE details & history
Last TLE update: 16 hours ago

TLE from 16 hours ago
0 THOR ABLESTAR R/B
1  1428U 65048B   26035.24511560  .00000034  00000-0  35889-4 0  9992
2  1428  89.8791 286.7071 0056009 204.2638 269.0211 13.52678409990672
Epoch: 2026-02-04T05:52Z
TLE epoch observation values (Epoch: 2026-02-04T05:52:57.987Z)
Latitude
67.43306°
Longitude
-116.2384°
Altitude
1,075.121 km
Speed
7.32 km/s
True Right ascension
07h 05m 40s
True Declination
67° 18' 58"
Sunlit
Object was in full shadow at epoch
Visualization orbit readout
Latitude
Unknown
Longitude
Unknown
Altitude
Unknown
Speed
Unknown
Apparent Right ascension
Unknown
Apparent Declination
Unknown
Sunlit
N/A
Visualization observer readout
Local Sidereal Time
00:15:35
Azimuth
Unknown
Elevation
Unknown
Doppler factor
Unknown
Orbital elements
Apogee altitude
1,101.123 km
Perigee altitude
1,017.809 km
Semi-major axis
7,437.603 km
Eccentricity
0.0056
Inclination
89.8791°
RAAN
286.7071°
Arg. of periapsis
204.2638°
True anomaly
268.37947°
Mean anomaly
269.0211°
Eccentric anomaly
268.70027°
Mean motion
3.38371 °/min
Orbital period
106.39 mins
BSTAR
0.000035889
Loading maneuver chart data...
Computing Atmospheric mass density...

Documentation

Showing up to 5 results
|